Location: S�tio Afonso Gruber
(26.1760°S, 49.5250°W)
Time: 07:56:52
(UTC+00:00)

Envisat - Visible Passes

Search period start: 02 December 2021 00:00
Search period end: 12 December 2021 00:00
Orbit: 764 x 766 km, 98.2° (Epoch: 01 December)

Date Brightness Start Highest point End Pass type
(mag) Time Alt. Az. Time Alt. Az. Time Alt. Az.
02 Dec 4.4 07:09:15 10° NE 07:13:59 41° ESE 07:18:47 10° S visible
03 Dec 5.9 06:34:15 10° ENE 06:37:26 17° ESE 06:40:37 10° SSE visible
04 Dec 3.2 07:34:07 10° NNE 07:39:11 80° ESE 07:44:20 10° S visible
05 Dec 5.0 06:58:03 10° NE 07:02:30 31° ESE 07:06:59 10° SSE visible
06 Dec 6.1 06:23:53 10° E 06:26:00 13° ESE 06:28:08 10° SE visible
07 Dec 3.7 07:22:40 10° NNE 07:27:40 60° ESE 07:32:43 10° S visible
08 Dec 5.4 06:47:01 10° ENE 06:51:02 24° ESE 06:55:05 10° SSE visible
09 Dec 3.0 07:47:51 10° N 07:52:54 71° WNW 07:58:02 10° SSW visible
10 Dec 4.2 07:11:20 10° NE 07:16:09 45° ESE 07:21:02 10° S visible
11 Dec 5.8 06:36:10 10° ENE 06:39:34 18° ESE 06:43:01 10° SSE visible
